sat.trackr.live / text

‹ back to catalog

SHIYAN-6 03 (SY-6 03)

NORAD 48157 · 2021-028A

PAYLOAD ACTIVE UNKNOWN

§ Identity

Operator
Country
PRC
Launch date
2021-04-08
Launch site
TAISC
Launch vehicle
Mass (kg)
RCS (m²)

External: N2YO · Heavens-Above · Gunter

§ Orbital elements

Epoch: 2026-09-20T22:59:05.694720Z

Period
104.53 min
Inclination
99.5285°
Eccentricity
0.0046027
Mean motion
13.77605114 rev/d
Perigee alt
938.6 km
Apogee alt
1,006.2 km
Semi-major
7,350.5 km
B*
8.7710e-6
RAAN
278.1262°
Arg perigee
195.4667°
Mean anomaly
164.5079°
Rev number
27,269

§ Raw data

SHIYAN-6 03 (SY-6 03)1 48157U 21028A   26263.95770480 -.00000037  00000+0  87710-5 0  99952 48157  99.5285 278.1262 0046027 195.4667 164.5079 13.77605114272693

JSON: /api/v1/satellites/48157 · /tle

For live sub-satellite position, see the globe view (requires WebGL).

§ Visibility from observer

Set your observer location to see the next 7 days of passes ≥ 10°. The values pass through the URL so the page stays shareable.

No JS? Fill the form by hand. The geolocation button needs JavaScript.